Content
SEND FEEDBACK

Daily
Averages
Monthly
Summary
United States of America

CLOUDY, OKLAHOMA


Home > North America > United States > Oklahoma
Elevation: 1200 feet     Latitude: 34 23N     Longitude: 095 15W

WEATHER
 
SELECT A DAY
Number of Records: 51,856;   Date Range: 2/2/12 - 7/24/14
 
SHARE

PRINT THIS DATA

[ ← Previous Day ]
WEATHER ALMANAC - JANUARY 31, 2013
[ Next Day → ]
[ °C ]   °F
Weather ElementAverageHighLow
Temperature46.3 °F66 °F (3:35 pm)30.9 °F (6:55 am)
Dewpoint22.4 °F28.8 °F (8:55 am)13.8 °F (3:55 pm)
Humidity45.3 %73 % (7:55 am)13 % (3:55 pm)
Barometer30.15 in30.35 in (11:15 pm)30.07 in (4:15 pm)
Wind Speed8.4 mph17.3 mph (8:55 pm)
Wind Gust26.5 mph (8:55 pm)
Weather ElementAverage
Visibility10 mi
Wind DirectionSSE (141.5 °)

Weather ElementTotal
Precipitation---
Heating Degree Days16.6 (Base 65)
Averaged from 66 records on January 31, 2013
WEATHER CONDITIONS BREAKOUT
WIND DIRECTION BREAKOUT
WEATHER BY HOUR - JANUARY 31, 2013
[ °C ]   °F
Local TimeTemperatureDewpointHumidityBarometerVisibilityWind DirectionWind SpeedGust SpeedPrecipitationEventsConditions
12:35 AM35.4 °F23.4 °F62 %30.09 in10.0 miSW (230°)6.9 mphClear
12:55 AM35.6 °F23.2 °F61 %30.09 in10.0 miWSW (240°)5.8 mphClear
1:15 AM35.6 °F23.0 °F60 %30.09 in10.0 miWSW (250°)5.8 mphClear
1:35 AM35.2 °F22.6 °F60 %30.10 in10.0 miWSW (250°)5.8 mphClear
1:55 AM34.7 °F22.8 °F62 %30.10 in10.0 miWSW (250°)5.8 mphClear
2:15 AM35.1 °F22.8 °F61 %30.09 in10.0 miWest (260°)6.9 mphClear
2:35 AM34.9 °F23.4 °F63 %30.09 in10.0 miWest (260°)5.8 mphClear
2:55 AM34.9 °F23.5 °F63 %30.09 in10.0 miWSW (240°)6.9 mphClear
3:15 AM34.3 °F23.4 °F64 %30.09 in10.0 miWSW (240°)8.1 mphClear
3:35 AM34.7 °F23.2 °F63 %30.09 in10.0 miWSW (240°)8.1 mphClear
3:55 AM34.2 °F23.2 °F64 %30.08 in10.0 miSW (230°)8.1 mphClear
4:15 AM33.4 °F23.5 °F67 %30.08 in10.0 miSW (230°)8.1 mphClear
4:35 AM33.8 °F23.9 °F67 %30.09 in10.0 miSW (230°)9.2 mphClear
4:55 AM33.1 °F23.9 °F69 %30.10 in10.0 miSW (220°)6.9 mphClear
5:15 AM32.9 °F23.5 °F68 %30.10 in10.0 miWSW (240°)4.6 mphClear
5:35 AM32.5 °F23.0 °F68 %30.11 in10.0 miWest (260°)3.5 mphClear
6:15 AM31.5 °F23.0 °F71 %30.11 in10.0 miCalmClear
6:35 AM32.0 °F23.0 °F69 %30.11 in10.0 miNorthClear
6:55 AM30.9 °F23.0 °F72 %30.12 in10.0 miCalmClear
7:15 AM31.6 °F23.0 °F70 %30.13 in10.0 miCalmClear
7:35 AM31.8 °F23.2 °F70 %30.13 in10.0 miCalmClear
7:55 AM31.8 °F23.9 °F73 %30.15 in10.0 miCalmClear
8:15 AM33.4 °F25.5 °F73 %30.14 in10.0 miCalmClear
8:35 AM34.9 °F27.0 °F73 %30.15 in10.0 miCalmClear
8:55 AM38.1 °F28.8 °F69 %30.16 in10.0 miCalmClear
9:15 AM42.4 °F24.3 °F49 %30.16 in10.0 miSW (230°)5.8 mphClear
9:35 AM43.9 °F24.4 °F46 %30.16 in10.0 miCalmClear
9:55 AM46.0 °F24.1 °F42 %30.16 in10.0 miCalmClear
10:15 AM48.7 °F24.1 °F38 %30.16 in10.0 miSouth (180°)3.5 mphClear
10:35 AM50.9 °F24.4 °F36 %30.16 in10.0 miWest (260°)3.5 mphClear
10:55 AM53.1 °F23.0 °F31 %30.16 in10.0 miWest (270°)5.8 mphClear
11:15 AM55.9 °F23.9 °F29 %30.17 in10.0 miWSW (240°)10.4 mphClear
11:35 AM58.3 °F22.6 °F25 %30.17 in10.0 miSSW (210°)10.4 mphClear
12:15 PM59.7 °F24.4 °F26 %30.16 in10.0 miSouth (190°)10.4 mph17.3 mphClear
12:35 PM61.3 °F23.9 °F24 %30.14 in10.0 miSouth (180°)8.1 mphClear
12:55 PM62.6 °F16.9 °F17 %30.13 in10.0 miSW (220°)16.1 mphClear
1:15 PM62.6 °F22.3 °F21 %30.12 in10.0 miSSW (200°)13.8 mph19.6 mphClear
1:35 PM63.9 °F18.7 °F18 %30.11 in10.0 miSW (220°)15.0 mph20.7 mphClear
1:55 PM64.9 °F18.5 °F17 %30.10 in10.0 miSSW (210°)13.8 mphClear
2:15 PM65.1 °F18.0 °F16 %30.10 in10.0 miSSW (200°)13.8 mphClear
2:35 PM65.1 °F15.4 °F15 %30.09 in10.0 miSW (220°)15.0 mphClear
2:55 PM65.8 °F14.9 °F14 %30.09 in10.0 miNorthClear
3:15 PM65.7 °F14.7 °F14 %30.08 in10.0 miNorthClear
3:35 PM66.0 °F15.4 °F14 %30.08 in10.0 miNorthClear
3:55 PM65.8 °F13.8 °F13 %30.08 in10.0 miNorthClear
4:15 PM65.1 °F15.1 °F14 %30.07 in10.0 miSW (220°)13.8 mphClear
4:35 PM64.8 °F16.9 °F16 %30.07 in10.0 miSW (220°)12.7 mphClear
4:55 PM64.0 °F17.6 °F17 %30.08 in10.0 miNorthClear
5:15 PM63.3 °F18.9 °F18 %30.10 in10.0 miNorthClear
5:35 PM61.2 °F19.9 °F20 %30.12 in10.0 miWest (260°)11.5 mphClear
5:55 PM59.7 °F22.1 °F24 %30.13 in10.0 miWest (260°)8.1 mphClear
6:15 PM58.5 °F22.6 °F25 %30.14 in10.0 miWest (260°)5.8 mphClear
6:35 PM56.8 °F23.0 °F27 %30.15 in10.0 miNorthClear
6:55 PM53.2 °F27.7 °F37 %30.18 in10.0 miNorth (360°)15.0 mph20.7 mphClear
7:15 PM50.0 °F28.4 °F43 %30.21 in10.0 miNorth (360°)16.1 mph23.0 mphClear
7:35 PM48.0 °F28.4 °F47 %30.23 in10.0 miNorth (10°)11.5 mph20.7 mphClear
8:15 PM44.6 °F27.1 °F50 %30.26 in10.0 miNorth (10°)16.1 mph24.2 mphClear
8:35 PM43.9 °F27.5 °F53 %30.27 in10.0 miNNE (20°)15.0 mph21.9 mphClear
8:55 PM42.4 °F27.1 °F55 %30.29 in10.0 miNorth (10°)17.3 mph26.5 mphClear
9:15 PM41.0 °F25.9 °F55 %30.31 in10.0 miNorth (10°)13.8 mph21.9 mphClear
9:35 PM40.1 °F24.3 °F53 %30.31 in10.0 miNorth (360°)16.1 mph23.0 mphClear
10:15 PM38.3 °F23.0 °F54 %30.33 in10.0 miNorth (10°)13.8 mph20.7 mphClear
10:35 PM37.4 °F22.5 °F55 %30.34 in10.0 miNorth (10°)10.4 mphClear
10:55 PM37.0 °F21.2 °F53 %30.34 in10.0 miNNE (20°)13.8 mph20.7 mphClear
11:15 PM36.0 °F21.2 °F55 %30.35 in10.0 miNNE (20°)10.4 mphClear
11:35 PM35.6 °F20.3 °F54 %30.35 in10.0 miNNE (20°)11.5 mph18.4 mphClear
Hourly data recorded from KHHW, located miles away from Cloudy, Oklahoma







STORIES FROM OUR PARTNERS